sat.trackr.live / text

‹ back to catalog

STARLINK-11391 [DTC]

NORAD 62889 · 2025-024L

PAYLOAD ACTIVE UNKNOWN

§ Identity

Operator
Country
US
Launch date
2025-02-04
Launch site
AFETR
Launch vehicle
Mass (kg)
RCS (m²)

Purposes: comms

External: N2YO · Heavens-Above · Gunter

§ Orbital elements

Epoch: 2026-05-24T19:58:54.898176Z

Period
91.67 min
Inclination
42.9980°
Eccentricity
0.0000221
Mean motion
15.70936283 rev/d
Perigee alt
356.1 km
Apogee alt
356.4 km
Semi-major
6,734.4 km
B*
1.1870e-3
RAAN
82.3266°
Arg perigee
222.1955°
Mean anomaly
137.8896°
Rev number
7,544

§ Raw data

STARLINK-11391 [DTC]1 62889U 25024L   26144.83257984  .00155365  00000+0  11870-2 0  99922 62889  42.9980  82.3266 0000221 222.1955 137.8896 15.70936283 75441

JSON: /api/v1/satellites/62889 · /tle

For live sub-satellite position, see the globe view (requires WebGL).

§ Visibility from observer

Set your observer location to see the next 7 days of passes ≥ 10°. The values pass through the URL so the page stays shareable.

No JS? Fill the form by hand. The geolocation button needs JavaScript.